Regional Weather Roundup
Issued by NWS

Home | Current Version | Previous Version | Text Only | Print | Product List | Glossary Off
Versions: 1 2 3 4 5 6 7 8 9 10 11 12 13 14 15 16 17 18 19 20 21 22 23 24 25 26 27 28 29 30 31 32 33 34 35 36 37 38 39 40 41 42 43 44 45 46 47 48 49 50

000
ASUS44 KMEG 201910
RWRTN
TENNESSEE HOURLY STATE WEATHER ROUNDUP
NATIONAL WEATHER SERVICE MEMPHIS TN
200 PM CDT SUN AUG 20 2017

TNZ002-004-019-021-049-052-054-088>092-202000-
WEST TENNESSEE

CITY           SKY/WX    TMP DP  RH WIND       PRES   REMARKS
MEMPHIS INTL   PTSUNNY   91  74  57 E7        30.03F HX 100
NWS MEMPHIS      N/A     92 N/A N/A MISG        N/A
JACKSON        SUNNY     94  74  52 VRB5      30.05F HX 104
DYERSBURG      MOSUNNY   92  78  63 SE5       30.03F HAZE    HX 107
SOMERVILLE     SUNNY     88  75  66 W5        30.04F HX  97
COVINGTON      SUNNY     91  75  59 CALM      30.04F HX 102
UNION CITY     SUNNY     93  70  46 SW6       30.03F HX  99
BOLIVAR        PTSUNNY   91  73  55 NE5       30.04F HX 100
PARIS          SUNNY     91  68  46 SE6       30.05F HX  95
HUNTINGDON     SUNNY     91  70  49 CALM      30.05F HX  97
LEXINGTON      SUNNY     91  64  40 VRB5      30.06F HX  93
SELMER         SUNNY     91  66  43 VRB6      30.05F HX  94
SAVANNAH       SUNNY     93  63  36 CALM      30.05F HX  94
$$

TNZ008-025-027-028-033-062-065-066-202000-
NORTH MIDDLE TENNESSEE

CITY           SKY/WX    TMP DP  RH WIND       PRES   REMARKS
NASHVILLE      PTSUNNY   93  63  36 VRB5      30.08F HX  94
PORTLAND       MOSUNNY   90  66  45 SW6       30.09F HX  92
CLARKSVILLE    SUNNY     91  67  44 CALM      30.07F HX  94
SMYRNA         MOSUNNY   94  66  39 VRB5      30.08F HX  97
COOKEVILLE     SUNNY     90  70  51 CALM      30.10F HX  95
GALLATIN       MOSUNNY   93  61  33 CALM      30.10F HX  93
CROSSVILLE     MOSUNNY   85  64  49 NE5       30.17F
$$

TNZ061-075-076-078-094-096-097-202000-
SOUTH MIDDLE TENNESSEE

CITY           SKY/WX    TMP DP  RH WIND       PRES   REMARKS
FAYETTEVILLE   SUNNY     90  66  45 CALM      30.09F HX  92
TULLAHOMA      PTSUNNY   88  61  40 E3        30.12F
WINCHESTER     SUNNY     90  70  51 S7        30.10F HX  95
MCMINNVILLE    MOSUNNY   90  73  58 NE5       30.11F HX  98
COLUMBIA       SUNNY     91  64  40 W5        30.06F HX  93
SHELBYVILLE    SUNNY     90  68  48 SE6       30.09F HX  93
$$

TNZ017-018-042-046-047-202000-
NORTHEAST TENNESSEE

CITY           SKY/WX    TMP DP  RH WIND       PRES   REMARKS
TRI CITIES     SUNNY     89  67  47 CALM      30.15F HX  92
ELIZABETHTON   SUNNY     88  68  51 CALM      30.14F HX  91
$$

TNZ012-013-036-069-073-074-202000-
CENTRAL EAST TENNESSEE

CITY           SKY/WX    TMP DP  RH WIND       PRES   REMARKS
KNOXVILLE      MOSUNNY   88  64  44 VRB3      30.11F
OAK RIDGE      SUNNY     88  63  43 SE5       30.13F
DOWNTOWN KNOXV SUNNY     90  66  45 CALM      30.11F HX  92
GATLINBURG     SUNNY     90  61  37 NW6       30.11F
MORRISTOWN     MOSUNNY   86  70  58 VRB5      30.13F HX  90
JACKSBORO      MOSUNNY   88  70  55 S6        30.16F HX  92
$$

TNZ083-085-099-202000-
SOUTHEAST TENNESSEE

CITY           SKY/WX    TMP DP  RH WIND       PRES   REMARKS
CHATTANOOGA    MOSUNNY   92  68  45 VRB3      30.10F HX  96
DAYTON         CLEAR     91  68  46 CALM      30.09F HAZE    HX  95
$$

SKY/WX REPORTED AS FAIR MEANS FEW OR NO CLOUDS BELOW
12 THOUSAND FEET.





USA.gov is the U.S. government's official web portal to all federal, state and local government web resources and services.